Location: USNO
(38.9242°N, 77.0663°W)
Time: 00:13:52
(UTC-04:00)

Tiangong 2 - Pass Details

Date: 08 October 2017
Orbit: 388 x 391 km, 42.8° (Epoch: 22 October)

Event Time Altitude Azimuth Distance (km) Brightness Sun altitude
Exits shadow 05:50:46 22° 201° (SSW) 907 2.7 -16.4°
Maximum altitude 05:52:14 35° 150° (SSE) 653 2.4 -16.1°
Drops below altitude 10° 05:55:12 10° 83° (E) 1,422 5.3 -15.6°
Sets 05:57:23 0° 74° (ENE) 2,280 6.7 -15.1°
